Location: Bosmont
(49.7318°N, 3.8587°E)
Time: 08:39:44
(UTC+00:00)

IRIDIUM 106 - Pass Details

Date: 08 February 2023
Orbit: 776 x 779 km, 86.4° (Epoch: 23 March)

Event Time Altitude Azimuth Distance (km) Brightness Sun altitude
Rises 17:55:31 0° 357° (N) 3,277 7.5 -10.8°
Reaches altitude 10° 17:57:53 10° 359° (N) 2,344 6.7 -11.2°
Maximum altitude 18:03:08 75° 85° (E) 812 4.3 -12.0°
Drops below altitude 10° 18:08:21 10° 171° (S) 2,325 6.8 -12.9°
Sets 18:10:41 0° 173° (S) 3,247 7.6 -13.2°
